Tracking 30922 objects as of 2-Jul-2025
HD Live streaming from Space Station
objects crossing your sky now

COSMOS 2251 DEB

Track COSMOS 2251 DEB now!
10-day predictions


NORAD ID: 34026
Int'l Code: 1993-036HM
Perigee: 767.8 km
Apogee: 1,282.9 km
Inclination: 73.8 °
Period: 105.5 minutes
Semi major axis: 7396 km
RCS: 0.0392 m2 (small)
Launch date: June 16, 1993
Source: Commonwealth of Independent States (former USSR) (CIS)
Launch site: PLESETSK MISSILE AND SPACE COMPLEX (PKMTR)

Note: This is SATELLITE DEBRIS
Your satellite tracking list
PSLV R/B
Track 1 satellite(s)




NASA's NSSDC Master Catalog

Two Line Element Set (TLE):
1 34026U 93036HM  25182.91900212  .00000701  00000-0  59247-3 0  9996
2 34026  73.7665 249.5463 0348271 143.9581  27.5779 13.64825825812967
Source of the keplerian elements: AFSPC